Weather History for KTAD - July, 2013

Change the Weather History Date:

Sunday, July 21, 2013

  Actual Average Record
Temperature  
Mean Temperature 76 °F 74 °F  
Max Temperature 93 °F 89 °F 98 °F (1981)
Min Temperature 59 °F 59 °F 49 °F (1961)
Degree Days  
Heating Degree Days 0 0  
Month to date heating degree days 0 0  
Since 1 June heating degree days 21 39  
Since 1 July heating degree days 0 0  
Cooling Degree Days 11 9  
Month to date cooling degree days 203 183  
Year to date cooling degree days 547 352  
Since 1 June cooling degree days 484 324  
Growing Degree Days 25 (Base 50)    
Moisture  
Dew Point 50 °F    
Average Humidity 46    
Maximum Humidity 78    
Minimum Humidity 13    
Precipitation  
Precipitation 0.30 in 0.08 in 0.94 in (1971)
Month to date precipitation 1.13 1.43  
Year to date precipitation 4.15 7.36  
Sea Level Pressure  
Sea Level Pressure 29.85 in    
Wind  
Wind Speed 11 mph (South)    
Max Wind Speed 35 mph    
Max Gust Speed 47 mph    
Visibility 9 miles    
Events Rain , Thunderstorm    
T = Trace of Precipitation, MM = Missing Value Source: NWS Daily Summary

Daily Weather History Graph

Daily Weather History Graph

Search for Another Location

Airport or City:

Trip Planner

Search our weather history database for the weather conditions in past years. The results will help you decide how hot, cold, wet, or windy it might be!

Date:

Astronomy

Jul. 21, 2013 Rise Set
Actual Time 5:53 AM MDT 8:13 PM MDT
Civil Twilight 5:23 AM MDT 8:43 PM MDT
Nautical Twilight 4:47 AM MDT 9:19 PM MDT
Astronomical Twilight 4:06 AM MDT 9:59 PM MDT
Moon 7:14 PM MDT (7/21) 4:41 AM MDT (7/21)
Length of Visible Light 15h 19m
Length of Day
14h 20m
Waxing Gibbous, 98% of the Moon is Illuminated
Jul 21
Waxing Gibbous
Jul 22
Full
Jul 29
Last Quarter
Aug 6
New
Aug 14
First Quarter

Hourly Weather History & Observations

Time (MDT) Temp. Heat Index Dew Point Humidity Pressure Visibility Wind Dir Wind Speed Gust Speed Precip Events Conditions
12:54 AM 66.0 °F - 55.0 °F 68% 29.84 in 10.0 mi North 31.1 mph 40.3 mph N/A   Mostly Cloudy
1:30 AM 62.6 °F - 53.6 °F 72% 30.13 in 10.0 mi North 26.5 mph 42.6 mph 0.00 in Rain , Thunderstorm Light Rain
1:54 AM 60.1 °F - 53.1 °F 78% 29.89 in 5.0 mi NNE 27.6 mph 42.6 mph 0.00 in Rain , Thunderstorm Light Rain
2:54 AM 62.1 °F - 53.1 °F 72% 29.94 in 6.0 mi North 10.4 mph - 0.04 in Rain , Thunderstorm Rain
3:19 AM 60.8 °F - 55.4 °F 82% 30.23 in 2.5 mi NW 4.6 mph - 0.12 in Rain Heavy Rain
3:31 AM 59.0 °F - 55.4 °F 88% 30.21 in 3.0 mi South 9.2 mph - 0.18 in Rain Heavy Rain
3:54 AM 61.0 °F - 54.0 °F 78% 29.91 in 6.0 mi SE 20.7 mph - 0.26 in Rain Rain
4:54 AM 60.1 °F - 54.0 °F 80% 29.82 in 10.0 mi SSW 6.9 mph - 0.00 in   Clear
5:54 AM 60.1 °F - 54.0 °F 80% 29.81 in 10.0 mi West 19.6 mph - N/A   Clear
6:54 AM 62.1 °F - 53.1 °F 72% 29.80 in 10.0 mi West 20.7 mph - N/A   Clear
7:54 AM 64.9 °F - 54.0 °F 68% 29.81 in 10.0 mi West 16.1 mph - N/A   Clear
8:54 AM 70.0 °F - 55.9 °F 61% 29.83 in 10.0 mi WSW 10.4 mph - N/A   Clear
9:54 AM 73.0 °F - 55.9 °F 55% 29.83 in 10.0 mi SSE 9.2 mph - N/A   Clear
10:54 AM 77.0 °F - 59.0 °F 54% 29.80 in 10.0 mi SSE 9.2 mph - N/A   Clear
11:54 AM 82.9 °F 82.0 °F 55.0 °F 38% 29.78 in 10.0 mi SE 8.1 mph - N/A   Clear
12:54 PM 86.0 °F - 48.0 °F 27% 29.78 in 10.0 mi Variable 4.6 mph - N/A   Clear
1:54 PM 89.1 °F - 46.9 °F 23% 29.75 in 10.0 mi East 6.9 mph - N/A   Clear
2:54 PM 90.0 °F - 44.1 °F 20% 29.74 in 10.0 mi ENE 6.9 mph - N/A   Clear
3:54 PM 91.9 °F - 34.0 °F 13% 29.72 in 10.0 mi ENE 8.1 mph - N/A   Clear
4:54 PM 91.0 °F - 33.1 °F 13% 29.72 in 10.0 mi Calm Calm - N/A   Clear
5:54 PM 90.0 °F - 36.0 °F 15% 29.72 in 10.0 mi Calm Calm - N/A   Clear
6:20 PM 87.8 °F - 44.6 °F 22% 30.00 in 10.0 mi ESE 11.5 mph - N/A   Clear
6:54 PM 87.1 °F - 46.9 °F 25% 29.73 in 10.0 mi SSE 19.6 mph 23.0 mph N/A   Clear
7:54 PM 82.0 °F - 48.9 °F 31% 29.76 in 10.0 mi SE 12.7 mph 18.4 mph N/A   Clear
8:54 PM 78.1 °F - 48.0 °F 35% 29.78 in 10.0 mi SSE 6.9 mph - N/A   Clear
9:54 PM 78.1 °F - 48.9 °F 36% 29.78 in 10.0 mi SW 6.9 mph - N/A   Clear
10:54 PM 75.0 °F - 51.1 °F 43% 29.80 in 10.0 mi West 8.1 mph - N/A   Clear
11:54 PM 75.0 °F - 50.0 °F 41% 29.78 in 10.0 mi WSW 15.0 mph - N/A   Clear